Location: La Trinit�
(48.1620°N, 3.4512°W)
Time: 07:38:59
(UTC+00:00)

USA 215 - Pass Details

Date: 08 May 2021
Orbit: 1101 x 1107 km, 123.0° (Epoch: 10 June)

Event Time Altitude Azimuth Distance (km) Brightness Sun altitude
Exits shadow 23:42:20 30° 120° (ESE) 1,872 4.1 -24.2°
Maximum altitude 23:45:56 86° 32° (NNE) 1,110 3.2 -24.3°
Drops below altitude 10° 23:52:30 10° 305° (NW) 2,967 6.0 -24.4°
Sets 23:54:59 0° 306° (NW) 3,928 6.7 -24.4°
